#timestamp,LO_Frequency,Hit,StdDev 
1541649615.7,286046998.2,N
1541649635.6,286047002.4,N
1541649655.4,286047002.5,N
1541649675.2,286047000.2,N
1541649695.1,286047000.0,N
1541649696.0,286047000.0,N
1541649715.8,286047000.3,N
1541649735.7,286047002.4,N
1541649755.5,286047002.1,N
1541649775.3,286047001.7,N
1541649795.2,286047002.7,N
1541649815.9,286047000.9,N
1541649835.7,286047001.0,N
1541649855.6,286047002.7,N
1541649875.4,286046999.8,N
1541649895.2,286047001.7,N
1541649915.1,286046999.8,N
1541649916.0,286046999.8,N
1541649935.8,286047002.8,N
1541649955.7,286047000.6,N
1541649975.5,286047001.5,N
1541649995.3,286047002.4,N
1541650015.2,286047002.0,N
1541650035.0,286047002.6,N
1541650035.9,286047002.6,N
1541650055.7,286047002.3,N
1541650075.6,286047001.9,N
1541650095.4,286047001.7,N
1541650115.3,286047002.6,N
1541650135.1,286047003.5,N
1541650136.0,286047003.5,N
1541650155.8,286047004.4,Y
1541650175.7,286047000.1,P
1541650195.5,286047000.9,N
1541650215.4,286047000.2,N
1541650235.2,286047002.8,Y
1541650255.0,286047000.1,P
1541650255.9,286047000.1,N
1541650275.8,286047001.7,P
1541650295.6,286046999.7,N
1541650315.4,286047002.1,N
1541650335.3,286047000.6,N
1541650355.1,286046999.7,N
1541650375.9,286047001.5,N
1541650395.7,286047000.4,N
1541650415.5,286047000.6,N
1541650435.4,286047000.3,N
1541650455.2,286047000.5,N
1541650475.1,286046999.7,N
1541650476.0,286046999.7,N
1541650495.8,286047000.5,N
1541650515.6,286046998.6,N
1541650535.5,286047000.0,N
1541650555.3,286047000.1,N
1541650575.1,286047000.7,N
1541650595.9,286047002.6,Y
1541650615.7,286047001.2,P
1541650635.6,286046999.4,N
1541650655.4,286046998.8,N
1541650675.2,286046999.6,N
1541650695.1,286046998.3,N
1541650696.0,286046998.3,N
1541650715.8,286046999.1,N
1541650735.7,286046999.3,N
1541650755.5,286046999.1,N
1541650775.3,286046998.7,N
1541650795.2,286046998.5,N
1541650815.0,286046998.5,N
1541650815.9,286046998.5,N
1541650835.7,286046998.9,N
1541650855.6,286046999.5,N
1541650875.4,286046999.2,N
1541650895.3,286046999.0,N
1541650915.1,286046997.8,Y
1541650935.8,286046997.0,P
1541650955.7,286046998.3,N
1541650975.5,286046999.2,N
1541650995.4,286046996.6,Y
1541651015.2,286047000.9,P
1541651035.0,286046999.9,N
1541651035.9,286046999.9,N
1541651055.8,286047002.1,N
1541651075.6,286047002.2,N
1541651095.4,286047002.2,N
1541651115.3,286047003.6,N
1541651135.1,286047001.6,N
1541651155.9,286047003.0,N
1541651175.7,286047003.6,N
1541651195.5,286047001.7,N
1541651215.4,286047002.4,N
1541651235.2,286047003.6,N
1541651255.0,286047002.9,N
1541651255.9,286047002.9,N
1541651275.8,286047003.7,N
1541651295.6,286047005.8,Y
1541651315.5,286047003.1,P
1541651335.3,286047001.3,N
1541651355.1,286047003.5,P
1541651375.9,286047001.4,N
1541651395.7,286047003.4,Y
1541651415.5,286047002.4,P
1541651435.4,286046999.7,P
1541651455.2,286047002.2,N
1541651475.1,286047000.9,N
1541651476.0,286047000.9,N
1541651495.8,286047000.8,N
1541651515.6,286047000.5,N
1541651535.5,286047000.1,N
1541651555.3,286046999.2,N
1541651575.1,286046998.4,N
1541651595.9,286046997.2,N
1541651615.7,286046999.3,N
1541651635.6,286046996.5,N
1541651655.4,286046997.0,N
1541651675.2,286046999.2,N
1541651695.1,286046997.3,N
1541651696.0,286046997.3,N
1541651715.8,286046998.3,N
1541651735.6,286047001.5,N
1541651755.5,286047002.6,N
1541651775.3,286047001.5,N
1541651795.2,286046999.7,N
1541651815.9,286047002.2,N
1541651835.7,286047002.5,N
1541651855.6,286047002.0,N
1541651875.4,286047002.7,N
1541651895.2,286047002.8,N
1541651915.1,286047002.3,N
1541651916.0,286047002.3,N
1541651935.8,286046998.6,N
1541651955.7,286047000.8,N
1541651975.5,286047000.9,N
1541651995.3,286047000.2,N
1541652015.2,286047001.2,N
1541652035.0,286046998.4,N
1541652035.9,286046998.4,N
1541652055.7,286047001.0,N
1541652075.6,286047001.0,N
1541652095.4,286047001.1,N
1541652115.3,286047000.7,N
1541652135.1,286046999.3,N
1541652136.0,286046999.3,N
1541652155.8,286047000.4,N
1541652175.7,286047001.0,N
1541652195.5,286047004.1,N
1541652215.3,286047001.9,N
1541652235.2,286047003.9,N
1541652255.0,286047001.9,N
1541652255.9,286047001.9,N
1541652275.8,286046999.1,N
1541652295.6,286047000.4,N
1541652315.4,286047000.9,N
1541652335.3,286046999.7,N
1541652355.1,286046998.1,N
1541652375.8,286046998.9,N
1541652395.7,286046998.7,N
1541652415.5,286046999.9,N
1541652435.4,286046996.6,N
1541652455.2,286046999.4,N
1541652475.0,286047000.6,N
1541652475.9,286047000.6,N
1541652495.8,286047002.6,N
1541652515.6,286047002.3,N
1541652535.4,286047002.0,N
1541652555.3,286047002.0,N
1541652575.1,286047000.6,N
1541652595.9,286046998.2,N
1541652615.7,286046999.7,N
1541652635.5,286047002.5,N
1541652655.4,286047004.0,N
1541652675.2,286047003.9,N
1541652695.0,286047001.4,N
1541652695.9,286047001.4,N
1541652715.8,286046999.7,N
1541652735.6,286046999.7,N
1541652755.4,286047002.8,N
1541652775.3,286047004.2,N
1541652795.1,286047001.3,N
1541652815.9,286046999.7,N
1541652835.7,286047002.3,N
1541652855.5,286047001.3,N
1541652875.4,286047002.0,N
1541652895.2,286047000.2,N
1541652915.0,286046999.9,N
1541652916.0,286046999.9,N
1541652935.8,286046999.8,N
1541652955.6,286047001.2,N
1541652975.5,286047002.4,N
1541652995.3,286047001.3,N
1541653015.1,286047003.5,N
1541653035.9,286047004.6,Y
1541653055.7,286047003.6,P
1541653075.5,286047005.3,P
1541653095.4,286047004.2,N
1541653115.2,286047001.8,N
1541653135.1,286047002.6,N
1541653136.0,286047002.6,N
1541653155.8,286047000.1,N
1541653175.6,286047001.5,N
1541653195.5,286047002.2,N
